x

Santa Monica Basin - 33nm Wsw Of Santa Monica, Ca (46025) Wave Buoy

9:50 - Tue 29th Jul 2014 All times are PDT. -7 hours from GMT.

  • Sig Wave height 3.6ft
  • Swell Direction
  • Peak Period 5s
  • Average Period 5s
  • Wind
    4mph, 7mph gusts
  • Sea Temp 67°f
  • Luft Temp 67°f
  • Sea Pressure 1014.2mb
  • Santa Monica Basin - 33nm Wsw Of Santa Monica, Ca
  • Santa Monica Basin - 33nm Wsw Of Santa Monica, Ca

More Historic Weather Station data

Upgrade to MSW Pro to gain access to the past 30 days of data for over 8000 Wavebouys and Weather Stations around the globe.

Join Pro

Comparision Forecast

View Surf forecast
   
Di 07/29 9:50 3.5ft 5s 5s 4 7 mph 1014.2mb 67f 67f
8:50 3ft 5s 5s 11 13 mph 1013.9mb 67f 67f
7:50 3.5ft 5s 5s 9 11 mph 1013.9mb 67f 68f
6:50 3.5ft 14s 5s 11 16 mph 1013.4mb 68f 68f
5:50 3ft 5s 4s 16 18 mph 1013.5mb 68f 69f
4:50 2.5ft 13s 5s 16 18 mph 1013.7mb 68f 68f
3:50 2.5ft 13s 5s 9 11 mph 1014.8mb 69f 68f
2:50 2.5ft 14s 6s 9 11 mph 1015mb 69f 68f
1:50 2.5ft 13s 6s 9 11 mph 1015.5mb 69f 67f
12:50 2.5ft 14s 5s 9 11 mph 1016.1mb 68f 68f
11:50 2.5ft 13s 5s 9 11 mph 1016.4mb 68f 67f
10:50 2.5ft 14s 5s 9
mph
1017mb 68f 67f
9:50 3ft 5s 5s 7 9 mph 1017.2mb 67f 66f
8:50 3ft 13s 5s 7 9 mph 1017.1mb 67f 66f
7:50 2.5ft 13s 5s 2 4 mph 1016.9mb 67f 67f
6:50 2.5ft 13s 5s 4
mph
1016.6mb 67f 67f
5:50 2.5ft 14s 5s 2 4 mph 1016.2mb 67f 67f
4:50 2.5ft 14s 5s 4 7 mph 1015.9mb 67f 67f
3:50 2.5ft 15s 5s 4 7 mph 1016.1mb 68f 67f
2:50 2.5ft 14s 5s 7 9 mph 1016.2mb 68f 67f
1:50 3ft 14s 5s 7 9 mph 1016.1mb 68f 67f
12:50 3ft 14s 5s 13 16 mph 1015.7mb 68f 67f
Mo 07/28 11:50 3ft 14s 5s 11 16 mph 1016.3mb 68f 67f
10:50 3ft 14s 4s 16 18 mph 1016.3mb 67f 66f
9:50 3ft 14s 4s 13 18 mph 1016.6mb 68f 67f
8:50 3.5ft 14s 5s 11 13 mph 1016.1mb 68f 68f
7:50 3ft 14s 4s 16 20 mph 1015.5mb 68f 67f
6:50 2.5ft 14s 5s 16 20 mph 1015.5mb 69f 68f
5:50 2.5ft 14s 5s 16 18 mph 1015.5mb 69f 67f
4:50 2.5ft 14s 7s 11 13 mph 1016mb 69f 69f
3:50 2.5ft 14s 6s 11
mph
1016.3mb 69f 68f
2:50 2.5ft 14s 7s 9
mph
1017.3mb 69f 68f
1:50 2.5ft 14s 7s 9 11 mph 1017.3mb 69f 67f
12:50 2.5ft 15s 6s 7 9 mph 1017.9mb 69f 67f
11:50 2.5ft 14s 6s 4
mph
1018mb 69f 68f
10:50 2.5ft 15s 6s 2
mph
1018.2mb 69f 67f
9:50 2.5ft 15s 5s 2
mph
1017.9mb 69f 67f
8:50 3ft 14s 5s 7 9 mph 1017.8mb 69f 67f
7:50 3ft 15s 5s 2 4 mph 1017.7mb 68f 67f
6:50 3.5ft 5s 5s 2
mph
1017mb 69f 67f
5:50 3ft 14s 5s 2
mph
1016.6mb 69f 67f
4:50 3ft 15s 5s 7 9 mph 1016.4mb 69f 67f
3:50 3ft 15s 5s 4
mph
1016.4mb 69f 67f
2:50 3ft 15s 5s 7
mph
1016.1mb 69f 67f
1:50 2.5ft 15s 5s 2 4 mph 1015.9mb 69f 67f
12:50 2.5ft 14s 5s 7
mph
1015.7mb 69f 68f
So 07/27 11:50 2.5ft 15s 5s 9 11 mph 1015mb 69f 68f
10:50 2.5ft 15s 5s 11 13 mph 1014.4mb 69f 68f
9:50 3.5ft 15s 5s 13 16 mph 1014.1mb 69f 68f
8:50 2.5ft 15s 5s 9 11 mph 1013.9mb 69f 68f
6:50 2.5ft 15s 4s 11 13 mph 1013.2mb 69f 68f
5:50 2.5ft 15s 5s 11 13 mph 1013.7mb 69f 68f
4:50 2.5ft 15s 5s 16 18 mph 1013.9mb 70f 68f
3:50 2.5ft 15s 7s 16 20 mph 1014.2mb 71f 68f
2:50 2ft 15s 7s 11 13 mph 1015.6mb 69f 67f
1:50 2.5ft 15s 8s 9 11 mph 1016.6mb 70f 67f
12:50 2ft 15s 7s 2
mph
1016.4mb 69f 68f
11:50 2ft 15s 7s 2 4 mph 1016.6mb 69f 68f
10:50 2ft 15s 6s 4
mph
1016.1mb 68f 67f
9:50 2.5ft 15s 6s 4 7 mph 1016.1mb 68f 67f
8:50 2.5ft 16s 6s 4
mph
1016mb 69f 67f
7:50 2.5ft 15s 6s 4 7 mph 1015.2mb 69f 66f
6:50 2.5ft 15s 6s 4 7 mph 1014.7mb 69f 66f
5:50 2.5ft 16s 6s 4 7 mph 1014.3mb 69f 66f
4:50 2.5ft 15s 6s 7 9 mph 1014.2mb 69f 66f
3:50 2.5ft 16s 6s 4
mph
1014.5mb 69f 66f
2:50 2.5ft 16s 6s 4 7 mph 1014.5mb 69f 66f
1:50 2.5ft 15s 6s 4
mph
1014.9mb 69f 66f
12:50 2ft 14s 6s 2 4 mph 1014.6mb 70f 66f
Sa 07/26 11:50 2.5ft 16s 6s 2 4 mph 1014.7mb 68f 67f
10:50 2.5ft 14s 6s 2 4 mph 1014.7mb 68f 67f
9:50 2.5ft 15s 5s 7
mph
1014.6mb 68f 67f
8:50 2.5ft 16s 6s 9
mph
1013.9mb 69f 67f
7:50 2.5ft 16s 5s 11 13 mph 1013.3mb 68f 66f
6:50 2ft 16s 6s 13 16 mph 1012.9mb 69f 67f
5:50 1.6ft 16s 6s 11 13 mph 1012.8mb 69f 68f
4:50 2ft 16s 7s 9 11 mph 1013.4mb 69f 67f
3:50 2ft 16s 7s 9 11 mph 1013.8mb 69f 67f
2:50 2.5ft 16s 7s 7 9 mph 1014.5mb 70f 67f
1:50 2ft 15s 6s 7 9 mph 1014.9mb 70f 66f
12:50 2.5ft 17s 6s 4 7 mph 1015.1mb 70f 67f
11:50 2.5ft 16s 6s 4
mph
1015.4mb 69f 67f
10:50 2.5ft 16s 6s 4 7 mph 1015.5mb 68f 66f
9:50 2.5ft 16s 6s 2 4 mph 1015.3mb 69f 67f
8:50 3ft 17s 6s 2
mph
1014.8mb 69f 67f
7:50 2.5ft 6s 6s  -  2 mph 1014mb 69f 65f
6:50 2.5ft 6s 6s 7 9 mph 1013.6mb 70f 65f